Shiyan 25

operational
NORAD ID: 57047 Int'l Des: 2023-087 Owner: DFHZ Country: CN
LEOCIRCULARRETROGRADESSO

Shiyan 25について

説明を読み込み中...

リアルタイム位置

3D地球を読み込み中...

次回通過

高度履歴

Altitude vs Time

uPlot chart will show altitude changes over time

軌道要素

1 57047U 23087A 26061.59152096 -.00011224 19923-5 -19620-4 0 9998
2 57047 96.7145 122.6662 0012219 243.1676 116.8355 16.00981330157751
Epoch: Mar 2, 2026 • Age: 27 hours

現在のステータス

高度 293.3 km
速度 7.73 km/s
衛星直下点 -77.96°S, 54.89°W
打ち上げ日 Jun 20, 2023
運用期間 2.7 years
タイプ other

技術仕様

分類 Payload
質量 100.00 kg
乾燥質量 100.00 kg
総質量 100.00 kg
長さ 1.00 m
直径 0.50 m
スパン 2.00 m
形状 Box + 2 pan
製造者 DFHZ
フェーズステータス In Orbit
所有者/国 DFHZ/CN

大規模コンステレーション

Loading constellations...